Location: ????????
(55.7667°N, 37.4833°E)
Time: 04:25:23
(UTC+00:00)

IRIDIUM 114 - Pass Details

Date: 19 May 2025
Orbit: 776 x 779 km, 86.4° (Epoch: 19 June)

Event Time Altitude Azimuth Distance (km) Brightness Sun altitude
Exits shadow 22:31:47 16° 173° (S) 1,939 5.8 -13.0°
Maximum altitude 22:35:58 72° 91° (E) 825 4.5 -12.8°
Drops below altitude 10° 22:41:12 10° 8° (N) 2,346 8.3 -12.6°
Sets 22:43:33 0° 7° (N) 3,278 9.4 -12.5°
